Regional Weather Roundup
Issued by NWS

Home | Current Version | Previous Version | Graphics & Text | Print | Product List | Glossary On
Versions: 1 2 3 4 5 6 7 8 9 10 11 12 13 14 15 16 17 18 19 20 21 22 23 24 25 26 27 28 29 30 31 32 33 34 35 36 37 38 39 40 41 42 43 44 45 46 47 48 49 50
000
ASUS43 KMKX 281421
RWRWI

WISCONSIN REGIONAL WEATHER ROUNDUP
NATIONAL WEATHER SERVICE MILWAUKEE/SULLIVAN WI
900 AM CDT SAT MAY 28 2016

NOTE: "FAIR" INDICATES FEW OR NO CLOUDS BELOW 12,000 FEET WITH NO
SIGNIFICANT WEATHER AND/OR OBSTRUCTIONS TO VISIBILITY.

WIZ001-002-006>008-014>016-023>028-281500-
NORTHWEST WISCONSIN

CITY           SKY/WX    TMP DP  RH WIND       PRES   REMARKS
SUPERIOR ARPT  FOG       47  47 100 CALM      29.81R VSB 3/4
ASHLAND        CLOUDY    53  51  93 VRB5      29.78S
HAYWARD        CLOUDY    59  58  96 S5        29.78R
SIREN          CLOUDY    55  53  93 N6        29.75F
CUMBERLAND     CLOUDY    59  57  94 N3        29.77R
RICE LAKE      CLOUDY    62  59  89 CALM      29.78R
CHETEK         CLOUDY    62  62  99 E3        29.77R
LADYSMITH      MOSUNNY   65  64  94 N3        29.77F
EAU CLAIRE     CLOUDY    66  62  87 NW3       29.75R
MENOMONIE      CLOUDY    66  66  99 CALM      29.77R
NEW RICHMOND   CLOUDY    61  61 100 CALM      29.78R
OSCEOLA        CLOUDY    58  58 100 CALM      29.80R
$$

WIZ003>005-009-010-017-018-281500-
NORTH CENTRAL WISCONSIN

CITY           SKY/WX    TMP DP  RH WIND       PRES   REMARKS
MANITOWISH WTR NOT AVBL
ARBOR VITAE    CLOUDY    69  67  91 CALM      29.79S
WOODRUFF       CLOUDY    69  67  91 CALM      29.79S
RHINELANDER    LGT RAIN  67  65  93 S3        29.80R FOG
EAGLE RIVER      N/A     67  65  96 CALM      29.80S FOG
LAND O LAKES   CLOUDY    67  65  96 SE5       29.82R
PHILLIPS       CLOUDY    66  64  94 CALM      29.77S
TOMAHAWK       RAIN      67  65  94 SE3       29.78S
MEDFORD        DRIZZLE   66  66 100 CALM      29.76S
MERRILL        LGT RAIN  69  69 100 S5        29.78S
$$

WIZ029-030-035-036-043>047-281500-
CENTRAL WISCONSIN

CITY           SKY/WX    TMP DP  RH WIND       PRES   REMARKS
WAUSAU         CLOUDY    70  65  84 S8        29.76R
MOSINEE        CLOUDY    66  66 100 S8        29.78R
MARSHFIELD     CLOUDY    69  65  86 SE8       29.74F
STEVENS POINT  DRIZZLE   66  65  98 SE7       29.77S
WAUPACA        CLOUDY    71  70  96 SE12      29.78S
WAUTOMA        CLOUDY    69  66  90 S15       29.77S
WISC RAPIDS    CLOUDY    69  65  86 S9        29.76S
CAMP DOUGLAS   CLOUDY    68  68 100 S16       29.74R
$$

WIZ011>013-019>022-031-037>040-048>050-281500-
NORTHEAST WISCONSIN

CITY           SKY/WX    TMP DP  RH WIND       PRES   REMARKS
ANTIGO         RAIN      65  65  99 S10       29.80S
SHAWANO        CLOUDY    71  67  85 SE7       29.79S
OCONTO         CLOUDY    67  67 100 SE8       29.81S
STURGEON BAY   NOT AVBL
GREEN BAY      CLOUDY    72  66  81 S13       29.80S
MANITOWOC      CLOUDY    61  59  93 S16       29.85S FOG
APPLETON       CLOUDY    70  66  88 S14       29.79S
CLINTONVILLE   CLOUDY    70  66  88 S12       29.78S
OSHKOSH        CLOUDY    71  65  81 S13G22    29.79S
$$

WIZ032>034-041-042-053>061-281500-
SOUTHWEST WISCONSIN

CITY           SKY/WX    TMP DP  RH WIND       PRES   REMARKS
LA CROSSE      CLOUDY    69  66  90 S5        29.73R
SPARTA         CLOUDY    66  66  98 SW3       29.75R
VIROQUA        CLOUDY    67  67 100 S9        29.77R
BOSCOBEL       CLOUDY    70  65  84 S9        29.78R
PRAIRIE DU CHI CLOUDY    67  64  91 S3        29.78R
PLATTEVILLE    CLOUDY    67  64  91 S17       29.82R
$$

WIZ056-057-062-063-064-067-068-281500-
SOUTH CENTRAL WISCONSIN

CITY           SKY/WX    TMP DP  RH WIND       PRES   REMARKS
REEDSBURG      CLOUDY    68  65  92 SW12G17   29.77R
BARABOO/DELLS  CLOUDY    68  64  85 S9G17     29.77S
LONE ROCK      CLOUDY    70  64  81 SW12      29.79R
MINERAL POINT  CLOUDY    68  64  88 S17G24    29.82R
MADISON        CLOUDY    71  63  75 S17       29.80R
MIDDLETON      CLOUDY    71  64  78 S20G28    29.80R
WATERTOWN      CLOUDY    71  67  87 S18       29.82R
MONROE         CLOUDY    70  64  83 S16G26    29.83R
JANESVILLE     CLOUDY    72  68  88 S15G21    29.84R
$$

WIZ051-052-058>065-066-070>072-281500-
SOUTHEAST WISCONSIN

CITY           SKY/WX    TMP DP  RH WIND       PRES   REMARKS
MILWAUKEE      CLOUDY    73  66  78 S15       29.85R
WAUKESHA       CLOUDY    70  64  83 S15       29.86R
MILWAUKEE/TIMM PTSUNNY   72  63  73 S14       29.85R
RACINE         CLOUDY    72  64  76 S12       29.88S
BURLINGTON     CLOUDY    71  65  81 S14G23    29.86R
KENOSHA        CLOUDY    73  65  75 SW17G23   29.87R
FOND DU LAC    CLOUDY    72  66  81 S22G29    29.80S
SHEBOYGAN      CLOUDY    67  62  84 S9        29.84S
WEST BEND      CLOUDY    72  64  78 S12G18    29.84R
JUNEAU         CLOUDY    70  65  85 S18G24    29.83R
$$

LSZ147-162-281500-
LAKE SUPERIOR

STATION/POSITION TIME  TEMP    WIND        PRES    WAVE
                       AIR SEA DIR/SP/G            HT/PER
                 (UTC) (F)     (DEG/KT/KT) (MB)    (FT/S)
W MID LAKE BUOY  1350   41 38   50/  8/ 10 1009.4R   2/ 4
DEVILS ISLAND    1400   43     100/  5/  6 1009.4R
SAXON HARBOR     1300   51     350/  3/  4 1008.1S
$$

LMZ867-665-643>646-281500-
LAKE MICHIGAN

STATION/POSITION TIME  TEMP    WIND        PRES    WAVE
                       AIR SEA DIR/SP/G            HT/PER
                 (UTC) (F)     (DEG/KT/KT) (MB)    (FT/S)
CHAMBERS ISLAND  1300   64     140/  5/ 13 1010.2S
N MID LAKE BUOY  1350   50 46  170/  6/  8 1011.4R   2/ 4
NORTHPORT PIER   1300   57     150/ 10/ 14 1010.8R
SISTER BAY       1305   61     150/ 13/ 17   N/A
ALGOMA LAKESHORE 1302             CALM       N/A
KEWAUNEE LAKESHO 1300   52     180/  7/  9 1010.1S
SHEBOYGAN LAKESH 1400   54     170/ 17/ 18 1010.9R
PORT WASHINGTON  1300   58     210/  4/  6 1011.5R
S MID LAKE BUOY  1350   55 50  160/ 14/ 16 1012.2R   2/ 3
KENOSHA   LAKESH 1400   57     170/ 15/ 16 1011.5R
$$

TC  - TEMPERATURE IN CELSIUS
VSB - VISIBILITY IN STATUTE MILES
WCI - WIND CHILL INDEX
HX  - HEAT INDEX




USA.gov is the U.S. government's official web portal to all federal, state and local government web resources and services.